This demonstration page uses our WeatherBlox Daily Observations layout. Learn more.

Left ArrowRight Arrow

44.31136, -96.79839

Hourly Observations for May 1, 2022

Temp ( °F °C ) Dew Point ( °F °C ) Humidity (%) Winds ( mph kmh ) Pressure ( in mb ) Visibility ( mi km ) Precip ( " mm )
12:56 am 00:56 Cloudy 37 2.8 34 1.1 89 89 NW 21 33 29.73 1007 10 16 0.00 0.00
1:56 am 01:56 Cloudy 37 2.8 34 1.1 89 89 NW 24 39 29.74 1007 10 16 0.00 0.00
2:56 am 02:56 Cloudy 37 2.8 34 1.1 89 89 NW 28 44 29.74 1007 10 16 0.00 0.00
3:56 am 03:56 Cloudy 37 2.8 34 1.1 89 89 NW 29 46 29.76 1008 10 16 0.00 0.00
4:56 am 04:56 Cloudy 37 2.8 34 1.1 89 89 NW 24 39 29.78 1008 10 16 0.00 0.00
5:56 am 05:56 Cloudy 37 2.8 34 1.1 89 89 NW 25 41 29.80 1009 10 16 0.00 0.00
6:56 am 06:56 Cloudy 37 2.8 34 1.1 89 89 NW 26 43 29.82 1010 10 16 0.00 0.00
7:40 am 07:40 Cloudy 37 3 34 1 87 87 NW 26 43 29.82 1010 10 16 0.00 0.00
7:56 am 07:56 Cloudy 37 2.8 34 1.1 89 89 NW 25 41 29.85 1011 10 16 0.00 0.00
8:56 am 08:56 Cloudy 38 3.3 35 1.7 89 89 NW 24 39 29.87 1011 10 16 0.00 0.00
9:44 am 09:44 Cloudy 39 4 36 2 87 87 NW 22 35 29.87 1011 10 16 0.00 0.00
9:56 am 09:56 Cloudy 39 3.9 35 1.7 86 86 NNW 21 33 29.89 1012 10 16 0.00 0.00
10:56 am 10:56 Cloudy 40 4.4 36 2.2 86 86 NNW 21 33 29.92 1013 10 16 0.00 0.00
11:56 am 11:56 Cloudy 40 4.4 36 2.2 86 86 NW 21 33 29.95 1014 10 16 0.00 0.00
12:56 pm 12:56 Cloudy 41 5 37 2.8 86 86 NW 24 39 29.96 1015 10 16 0.00 0.00
1:56 pm 13:56 Cloudy 42 5.6 37 2.8 82 82 NW 24 39 29.98 1015 10 16 0.00 0.00
2:22 pm 14:22 Cloudy 43 6 37 3 81 81 NW 24 39 29.94 1014 10 16 0.00 0.00
2:56 pm 14:56 Cloudy 42 5.6 37 2.8 82 82 NW 26 43 29.99 1016 10 16 0.00 0.00
3:56 pm 15:56 Cloudy 44 6.7 37 2.8 76 76 NW 25 41 30.00 1016 10 16 0.00 0.00
4:56 pm 16:56 Cloudy 43 6.1 37 2.8 80 80 NW 17 28 30.03 1017 10 16 0.00 0.00
5:56 pm 17:56 Cloudy 43 6.1 37 2.8 80 80 NNW 20 31 30.05 1018 10 16 0.00 0.00
6:56 pm 18:56 Cloudy 42 5.6 36 2.2 79 79 NNW 16 26 30.06 1018 10 16 0.00 0.00
7:56 pm 19:56 Cloudy 41 5 35 1.7 79 79 N 14 22 30.07 1018 10 16 0.00 0.00
8:56 pm 20:56 Cloudy 41 5 34 1.1 76 76 NNW 12 19 30.10 1019 10 16 0.00 0.00
9:56 pm 21:56 Cloudy 41 5 34 1.1 76 76 NW 9 15 30.14 1021 10 16 0.00 0.00
10:56 pm 22:56 Cloudy 41 5 35 1.7 79 79 NW 9 15 30.14 1021 10 16 0.00 0.00
11:56 pm 23:56 Cloudy 41 5 34 1.1 76 76 NNW 16 26 30.14 1021 10 16 0.00 0.00

Powered by AerisWeather